Theta_e
311 311 310 309 308 306 299 290 276 293 295 280 283 280 283 286 287 289 287 285 284 276 280 281 281 280 285 293 294 287 292 286 283 286 290 292 291 290 291 284 282 283 282 282
311 311 310 309 307 306 294 286 285 292 292 270 280 283 281 285 285 285 285 285 286 286 282 279 283 283 291 291 292 290 291 285 279 280 284 289 287 289 291 290 287 282 281 282
311 311 310 309 308 306 294 286 275 283 287 287 280 281 281 281 288 285 286 285 287 285 282 285 280 284 290 292 292 294 295 286 283 275 282 285 283 286 288 288 281 282 283 284
311 310 310 309 309 307 294 284 282 281 271 276 284 283 283 281 279 284 285 283 283 283 276 282 282 283 288 291 292 292 291 283 285 284 285 288 286 286 286 285 287 283 286 287
310 310 309 309 309 304 291 281 278 277 275 279 281 278 274 279 276 280 280 281 284 284 279 281 280 283 285 285 289 288 291 282 284 281 284 286 285 288 288 289 288 288 288 287
310 309 308 309 307 301 288 285 285 285 284 278 276 276 277 279 281 282 285 284 283 282 282 284 284 284 285 287 286 285 286 280 282 279 280 280 273 282 287 288 289 289 285 290
310 308 308 308 307 301 291 287 286 280 273 278 279 280 280 280 281 279 282 285 284 285 289 288 287 285 285 286 287 289 285 283 284 277 270 271 281 284 288 288 289 291 291 290
310 308 308 307 307 305 292 289 287 283 274 280 280 280 280 279 280 280 281 283 286 288 284 279 270 277 281 281 284 286 288 285 279 272 274 276 280 282 284 285 285 291 291 292
309 308 307 308 307 305 292 289 289 286 275 276 282 278 280 273 271 274 280 283 285 284 281 273 266 265 269 276 276 285 286 287 282 273 270 265 279 282 286 287 278 284 286 291
309 308 307 308 308 305 293 288 288 287 276 279 279 275 276 280 277 273 274 279 280 281 275 269 266 269 270 269 275 277 281 282 277 274 267 273 282 283 286 275 279 283 284 286
309 308 307 308 308 305 293 286 288 288 279 279 281 281 277 277 276 272 274 274 274 270 267 268 270 268 271 269 276 280 279 275 272 269 273 271 283 283 281 284 283 283 283 284
308 308 307 307 307 304 295 284 289 288 281 280 284 284 284 282 280 280 276 276 271 277 268 267 269 268 271 270 268 279 277 279 277 277 278 284 284 284 285 285 284 283 283 284
308 307 307 307 306 303 295 285 287 284 276 279 282 281 285 288 287 287 274 275 281 279 278 271 267 265 274 268 271 275 277 279 277 279 282 282 284 283 284 285 284 284 284 284
307 307 306 306 305 301 294 286 287 285 281 272 276 286 283 287 287 286 286 283 283 281 276 271 263 264 276 273 275 274 275 277 274 275 280 281 283 282 284 283 283 283 283 283
306 306 306 305 303 299 291 287 287 287 282 272 273 283 285 287 286 285 286 284 284 282 270 266 267 273 271 272 272 270 275 276 276 275 280 282 281 279 281 282 282 282 283 282
305 305 305 304 301 296 288 278 285 286 284 274 267 280 282 284 285 284 282 282 279 280 279 273 271 276 273 267 262 275 276 278 278 277 277 279 279 278 278 279 278 278 279 280
305 305 304 302 298 288 281 279 283 289 285 274 271 273 278 283 283 282 280 281 279 279 271 267 277 274 271 274 268 275 275 277 277 277 278 277 278 277 280 279 277 275 272 272
304 304 302 299 296 291 282 282 289 287 280 274 267 264 271 279 279 278 281 279 278 274 274 276 274 276 274 268 271 271 273 271 272 274 272 274 273 271 270 269 270 270 271 270
302 300 297 288 284 278 280 290 288 283 279 270 264 265 263 274 278 279 279 280 274 273 267 274 268 262 269 270 269 265 268 270 269 262 262 264 267 266 265 265 266 269 268 267
299 290 283 277 282 291 289 281 275 276 273 270 267 265 265 275 277 276 277 267 268 261 266 268 269 263 269 271 271 270 266 268 264 266 268 265 266 265 264 267 264 266 267 265
284 279 277 281 288 280 274 271 272 268 269 266 265 267 272 277 267 272 274 262 261 259 263 261 255 264 271 267 265 262 262 263 267 264 263 262 265 266 265 264 261 263 265 266
285 282 282 279 277 271 270 264 265 265 270 265 268 268 269 268 270 265 263 261 260 262 256 259 258 269 268 264 265 263 259 259 261 260 263 260 262 261 263 262 263 263 263 266
285 282 277 278 272 266 267 264 264 264 268 269 266 266 268 265 268 261 262 260 261 256 257 261 267 268 267 263 259 259 255 256 257 259 259 258 260 258 261 263 260 262 263 263
283 279 273 276 264 267 266 268 272 272 270 271 265 269 265 260 263 259 262 258 258 258 259 264 268 268 266 261 259 259 260 257 259 260 258 258 259 260 258 258 258 262 262 259
282 280 275 268 267 260 260 264 270 268 276 271 266 263 267 257 261 258 257 259 259 262 267 268 271 267 263 262 260 259 259 258 260 259 261 259 259 261 261 259 259 262 262 261
283 272 269 262 267 260 262 267 270 270 276 272 267 259 259 259 261 260 262 264 264 268 265 268 264 264 261 261 260 260 259 259 260 260 261 260 261 263 262 258 260 259 261 260
279 270 262 268 271 274 270 272 273 277 274 270 266 263 264 261 258 259 263 266 270 269 267 263 263 265 263 260 258 259 262 264 262 261 261 262 259 259 263 266 261 261 260 262
Wind_Speed
15 15 16 14 12 7 3 4 3 3 3 5 1 0 0 3 1 1 2 2 4 3 5 3 3 4 3 7 3 3 4 2 2 2 2 4 1 1 3 4 4 1 1 2
15 15 15 15 12 7 3 4 2 3 4 3 1 2 3 3 3 3 1 2 1 1 1 3 3 4 3 6 6 4 3 1 3 3 3 2 2 3 2 3 3 3 4 2
16 16 16 14 11 7 4 4 2 4 4 2 3 1 2 3 4 3 3 2 2 2 3 4 4 3 4 5 4 12 2 2 2 4 2 3 4 6 5 4 4 3 3 3
17 17 16 14 11 7 5 3 1 3 1 2 3 1 1 2 3 1 0 2 2 3 3 2 4 2 2 4 6 6 1 2 1 2 2 4 6 5 5 3 4 5 4 4
18 17 16 14 12 8 4 5 5 2 1 2 3 2 4 5 4 1 1 2 4 3 4 1 3 4 4 2 2 4 2 2 1 4 6 5 4 7 6 8 5 5 8 5
19 17 15 14 14 7 3 0 2 5 1 1 4 4 5 2 4 2 1 1 3 3 2 3 5 4 5 4 4 1 1 3 2 4 4 4 6 8 10 8 5 10 9 9
20 18 16 15 15 7 4 4 4 4 3 2 4 2 2 1 2 1 2 2 2 0 3 4 3 5 6 6 4 2 1 3 1 2 3 0 8 1 5 12 3 8 5 3
21 19 18 16 13 10 4 2 4 4 2 3 2 3 2 1 3 2 1 3 1 1 2 2 5 2 1 2 2 1 3 1 1 3 3 5 4 3 5 7 6 11 12 8
22 21 19 16 13 11 4 1 3 4 6 5 2 3 3 3 2 5 2 1 1 1 1 3 2 3 4 1 5 1 1 2 0 2 3 6 6 2 1 3 5 1 2 7
23 22 20 17 15 13 5 1 2 5 4 3 3 3 5 2 2 1 3 1 1 3 2 1 1 2 3 2 2 3 3 2 3 2 2 8 6 3 0 7 6 1 2 2
23 23 21 18 17 15 6 1 1 5 3 1 1 1 3 2 2 4 5 5 5 4 3 3 2 2 4 1 3 4 4 5 4 2 3 8 6 3 7 4 1 2 1 1
24 23 21 19 19 17 8 3 1 3 6 2 2 3 2 2 3 4 2 3 3 3 3 2 2 1 1 2 3 0 4 7 5 8 8 3 5 0 2 3 4 3 1 1
24 23 21 20 20 19 8 4 4 5 4 3 0 1 2 1 1 1 4 2 1 2 3 3 2 2 3 3 6 3 5 4 3 2 5 7 6 4 4 5 5 4 3 2
24 22 21 22 21 17 9 4 3 4 4 5 2 1 1 2 0 2 1 0 2 1 2 2 3 2 2 3 3 3 5 5 5 5 7 6 9 8 6 6 4 4 2 1
24 22 22 23 22 16 8 3 2 2 6 5 2 1 1 0 2 3 3 4 3 1 2 3 3 2 3 2 2 6 7 9 7 7 6 3 2 2 2 7 7 7 5 2
25 23 24 24 22 16 5 5 2 3 4 6 2 1 2 1 2 4 4 2 1 2 2 3 3 1 3 1 4 9 6 3 2 2 1 1 1 0 1 3 3 3 4 3
26 26 26 24 21 5 4 7 4 6 3 5 3 1 2 1 2 2 1 1 2 2 1 0 1 2 3 3 5 5 5 5 3 2 0 4 2 3 4 2 2 4 4 3
28 28 26 22 19 13 4 2 4 3 5 4 4 3 2 2 2 2 1 2 1 1 1 0 2 1 1 7 10 7 6 6 4 4 2 2 1 3 4 3 2 4 4 3
32 30 28 7 5 3 3 7 6 3 5 4 4 6 5 1 1 2 1 1 2 1 1 1 3 4 8 11 8 5 5 5 5 2 4 5 3 2 2 2 1 4 2 1
35 11 5 2 1 12 9 5 4 5 4 4 3 1 2 3 3 3 2 2 1 1 3 2 3 7 8 10 9 6 6 7 6 5 3 1 4 5 4 6 4 4 4 4
4 4 4 1 4 3 4 2 4 2 3 1 3 4 6 1 4 4 1 3 1 3 5 4 3 7 6 3 3 3 3 5 7 3 3 3 4 5 6 4 4 3 5 5
9 13 8 3 3 4 6 3 2 2 7 1 5 4 4 1 3 5 3 3 4 4 0 5 5 8 6 3 3 3 2 1 3 2 2 1 3 3 5 4 5 5 5 7
5 7 6 3 1 4 10 9 5 2 5 6 3 2 4 3 3 4 4 4 5 1 4 6 8 5 5 5 3 4 4 2 3 3 2 1 1 1 1 3 3 4 3 1
5 5 5 8 5 8 7 7 7 4 5 8 4 4 4 2 5 2 5 3 3 4 3 8 5 6 4 3 1 1 1 1 4 4 3 3 4 3 4 4 2 5 4 2
6 6 8 6 3 2 2 2 5 1 8 7 5 4 4 2 5 2 4 5 4 7 8 6 5 4 2 2 2 3 3 2 3 2 3 3 3 4 3 4 3 4 5 4
4 4 5 2 6 3 2 2 3 2 8 3 4 5 5 1 6 4 9 7 8 7 6 5 2 2 3 4 4 4 3 4 3 3 3 3 4 4 5 3 5 4 4 5
8 3 1 3 4 7 5 4 5 7 4 4 5 6 8 4 4 3 6 8 6 5 4 3 3 3 2 3 3 4 5 6 4 3 2 3 2 4 3 6 2 4 4 5
Wind_Direction
157 156 159 160 163 163 80 84 69 316 28 62 51 194 293 304 281 12 273 258 250 169 310 314 266 264 256 350 62 215 154 308 136 61 65 356 309 106 196 144 199 317 108 261
162 163 162 165 177 167 113 111 143 339 69 113 136 293 284 262 277 215 249 266 282 38 286 296 234 290 53 13 9 13 139 314 97 94 26 18 15 330 313 113 81 188 125 240
168 166 164 169 181 172 89 91 47 339 46 11 154 287 284 286 227 273 147 271 295 238 249 201 291 300 8 14 8 340 40 298 77 157 175 139 171 218 221 130 103 163 205 170
172 169 167 167 172 167 92 44 143 161 209 288 183 258 252 271 285 247 203 295 223 328 306 245 224 274 268 12 7 338 87 19 249 292 34 172 192 218 226 145 165 168 210 226
172 170 168 167 165 138 82 129 136 322 163 271 181 215 263 203 277 202 202 209 322 254 236 278 323 315 24 47 334 354 5 46 74 350 345 1 334 182 205 216 257 290 269 284
173 171 167 164 167 135 120 248 50 103 160 266 88 227 223 255 153 268 353 347 319 290 359 272 278 279 295 282 321 264 286 119 88 247 331 21 352 229 189 206 205 214 210 226
173 171 168 171 175 157 128 192 115 95 243 158 206 220 199 265 220 236 161 173 266 171 323 281 231 253 270 268 270 339 233 132 72 210 19 324 238 187 189 201 182 213 244 264
176 173 172 175 176 174 98 163 111 118 185 202 310 222 188 56 332 242 226 192 199 251 302 332 17 358 308 282 323 294 302 136 123 146 200 284 326 235 153 164 262 207 221 219
177 177 176 175 172 156 94 121 122 110 117 255 186 151 152 180 231 343 287 311 100 309 315 56 127 184 216 309 333 209 245 123 246 101 125 190 244 224 360 97 297 358 268 226
178 177 177 174 168 158 109 126 99 99 121 268 115 165 177 149 89 156 302 281 42 28 45 28 151 259 184 141 203 188 177 146 185 194 198 288 244 197 145 91 234 136 40 34
177 177 175 170 166 157 110 156 339 121 122 299 351 79 139 54 93 144 253 39 339 24 47 121 254 143 223 86 229 196 187 150 192 81 90 281 151 88 167 200 103 137 70 270
176 174 172 166 165 159 118 103 292 87 84 167 65 67 35 81 177 132 347 176 184 208 71 342 61 277 71 188 254 143 215 191 191 178 207 252 214 356 176 143 147 192 229 296
173 171 169 163 163 162 121 128 159 67 93 21 245 251 190 161 116 5 120 310 349 51 166 167 220 232 120 194 240 216 243 181 214 51 250 232 237 232 184 190 195 183 202 219
169 168 162 159 160 150 121 134 177 96 121 115 238 103 156 137 159 202 314 231 331 144 96 104 139 164 103 253 273 223 205 125 186 270 278 285 260 236 216 208 188 173 171 218
164 161 156 156 154 132 92 87 196 166 127 176 204 133 108 43 227 193 205 221 223 212 28 78 233 239 41 298 4 250 191 188 173 217 225 170 271 43 326 192 197 201 182 178
156 153 152 152 145 131 86 16 280 197 126 100 78 342 173 91 89 95 50 45 104 189 204 231 292 247 119 294 241 261 227 230 207 230 104 176 123 177 271 173 202 180 171 191
149 147 145 144 147 88 125 186 215 152 92 94 80 25 296 171 145 123 148 171 191 213 191 213 297 279 106 243 243 261 329 273 253 276 26 303 195 201 11 117 73 92 74 60
143 139 134 134 111 108 48 331 88 86 92 75 112 268 6 250 180 186 113 193 162 25 227 188 230 254 209 255 247 273 286 314 315 248 354 171 15 28 12 32 74 84 129 147
129 124 123 95 45 90 209 116 81 72 130 152 104 146 223 66 151 71 162 243 216 75 251 196 84 262 230 226 232 252 246 192 238 22 41 22 66 293 315 50 33 142 226 175
131 119 79 86 252 126 125 21 37 10 334 38 148 83 163 132 173 179 166 360 201 235 245 19 223 259 263 251 231 224 224 194 162 82 328 296 275 219 224 213 199 190 181 152
86 110 85 80 146 70 38 78 106 307 336 115 203 147 143 284 122 177 81 195 298 55 260 124 301 274 250 270 244 240 256 211 206 165 166 200 192 194 202 236 229 186 158 163
147 114 107 108 71 51 107 206 343 156 218 262 132 199 146 218 99 98 306 136 42 242 282 68 286 253 263 272 260 266 297 331 177 193 159 100 165 197 170 179 185 193 174 159
84 76 92 123 329 52 166 189 255 240 172 173 156 126 128 37 53 59 83 85 220 42 48 233 233 265 277 262 264 286 315 315 122 114 106 111 146 20 82 178 244 159 145 91
96 128 125 190 192 228 178 179 177 185 119 138 113 109 124 174 65 148 96 246 65 34 2 239 250 241 256 273 259 103 300 74 147 134 65 66 68 48 19 45 98 113 107 85
133 138 200 185 175 48 187 126 102 134 143 126 93 56 89 18 91 51 104 36 260 206 229 231 238 243 253 275 217 183 161 145 140 119 84 94 99 103 82 19 62 94 120 125
127 86 100 333 81 328 41 112 102 199 146 97 68 115 71 256 133 102 212 136 221 240 220 235 238 250 223 206 192 187 156 154 127 130 148 129 104 123 132 89 52 63 100 107
154 204 77 150 131 161 164 141 156 150 125 157 127 107 193 108 57 264 197 205 219 215 242 233 211 211 245 183 131 137 137 132 138 126 130 130 137 129 95 89 33 83 79 87